Weather History for Orange, MA

Change the Weather History Date:

Sunday, April 13, 2014

  Actual Average Record
Temperature  
Mean Temperature 54 °F -  
Max Temperature 72 °F 55 °F 73 °F (2006)
Min Temperature 36 °F 30 °F 24 °F (2005)
Degree Days  
Heating Degree Days 12    
Growing Degree Days 4 (Base 50)    
Moisture  
Dew Point 41 °F    
Average Humidity 71    
Maximum Humidity 93    
Minimum Humidity 39    
Precipitation  
Precipitation 0.02 in - - ()
Sea Level Pressure  
Sea Level Pressure 30.12 in    
Wind  
Wind Speed 3 mph (SSE)    
Max Wind Speed 16 mph    
Max Gust Speed 21 mph    
Visibility 10 miles    
Events Rain    
Averages and records for this station are not official NWS values.
T = Trace of Precipitation, MM = Missing Value Source: NWS Daily Summary

Daily Weather History Graph

Daily Weather History Graph

Search for Another Location

Airport:

Trip Planner

Search our weather history database for the weather conditions in past years. The results will help you decide how hot, cold, wet, or windy it might be!

Date:

Astronomy

Apr. 13, 2014 Rise Set
Actual Time 6:11 AM EDT 7:28 PM EDT
Civil Twilight 5:42 AM EDT 7:58 PM EDT
Nautical Twilight 5:07 AM EDT 8:33 PM EDT
Astronomical Twilight 4:30 AM EDT 9:10 PM EDT
Moon 6:02 PM EDT (4/13) 5:10 AM EDT (4/13)
Length of Visible Light 14h 15m
Length of Day
13h 17m
Waxing Gibbous, 97% of the Moon is Illuminated
Apr 13
Waxing Gibbous
Apr 15
Full
Apr 22
Last Quarter
Apr 29
New
May 6
First Quarter

Hourly Weather History & Observations

Time (EDT) Temp. Windchill Dew Point Humidity Pressure Visibility Wind Dir Wind Speed Gust Speed Precip Events Conditions
12:52 AM 37.9 °F - 35.1 °F 89% 30.23 in 10.0 mi Calm Calm - N/A   Clear
1:52 AM 37.0 °F - 35.1 °F 93% 30.23 in 10.0 mi Calm Calm - N/A   Clear
2:52 AM 37.0 °F - 35.1 °F 93% 30.22 in 10.0 mi Calm Calm - N/A   Overcast
3:52 AM 37.9 °F - 35.1 °F 89% 30.22 in 10.0 mi Calm Calm - N/A   Scattered Clouds
4:52 AM 36.0 °F - 34.0 °F 93% 30.21 in 10.0 mi Calm Calm - N/A   Scattered Clouds
5:52 AM 36.0 °F - 34.0 °F 93% 30.20 in 10.0 mi Calm Calm - N/A   Scattered Clouds
6:52 AM 39.0 °F - 35.1 °F 86% 30.19 in 10.0 mi Calm Calm - N/A   Overcast
7:52 AM 39.9 °F 36.7 °F 36.0 °F 86% 30.22 in 8.0 mi East 4.6 mph - 0.00 in Rain Light Rain
8:52 AM 42.1 °F 40.2 °F 39.0 °F 89% 30.22 in 10.0 mi ESE 3.5 mph - 0.01 in Rain Light Rain
9:52 AM 44.1 °F - 39.9 °F 85% 30.21 in 10.0 mi Calm Calm - 0.00 in   Overcast
10:52 AM 46.0 °F - 41.0 °F 83% 30.20 in 10.0 mi Calm Calm - 0.01 in Rain Light Rain
11:52 AM 48.9 °F - 43.0 °F 80% 30.18 in 10.0 mi NW 3.5 mph - 0.00 in   Overcast
12:52 PM 55.0 °F - 39.9 °F 57% 30.15 in 10.0 mi SE 8.1 mph - N/A   Overcast
1:52 PM 59.0 °F - 39.0 °F 48% 30.12 in 10.0 mi SSE 5.8 mph - N/A   Overcast
2:52 PM 66.0 °F - 41.0 °F 40% 30.07 in 10.0 mi South 12.7 mph - N/A   Partly Cloudy
3:52 PM 70.0 °F - 44.1 °F 39% 30.01 in 10.0 mi SSE 9.2 mph - N/A   Clear
4:52 PM 71.1 °F - 48.0 °F 44% 30.00 in 10.0 mi SSE 13.8 mph 20.7 mph N/A   Clear
5:52 PM 71.1 °F - 50.0 °F 47% 29.99 in 10.0 mi South 13.8 mph 19.6 mph N/A   Clear
6:52 PM 69.1 °F - 50.0 °F 51% 29.99 in 10.0 mi South 16.1 mph 20.7 mph N/A   Clear
8:52 PM 64.0 °F - 48.9 °F 58% 30.00 in 10.0 mi South 10.4 mph - N/A   Clear
9:52 PM 62.1 °F - 48.9 °F 62% 30.00 in 10.0 mi South 9.2 mph - N/A   Clear
10:52 PM 60.1 °F - 46.9 °F 62% 30.00 in 10.0 mi South 5.8 mph - N/A   Clear
11:52 PM 59.0 °F - 46.9 °F 64% 30.00 in 10.0 mi South 6.9 mph - N/A   Clear